Regional Weather Roundup
Issued by NWS Sioux Falls, SD

Home | Current Version | Previous Version | Graphics & Text | Print | Product List | Glossary Off
Versions: 1 2 3 4 5 6 7 8 9 10 11 12 13 14 15 16 17 18 19 20 21 22 23 24 25 26 27 28 29 30 31 32 33 34 35 36 37 38 39 40 41 42 43 44 45 46 47 48 49 50

000
ASUS43 KFSD 180102
RWRFSD

WEATHER ROUNDUP FOR SE SOUTH DAKOTA/SW MINNESOTA/NW IOWA
NATIONAL WEATHER SERVICE SIOUX FALLS SD
700 PM CST SAT FEB 17 2018

NOTE: "FAIR" INDICATES FEW OR NO CLOUDS BELOW 12,000 FEET WITH NO
SIGNIFICANT WEATHER AND OR OBSTRUCTIONS TO VISIBILITY.


SDZ038>040-050-052>070-180200-
SOUTHEAST SOUTH DAKOTA

CITY           SKY/WX    TMP DP  RH WIND       PRES   REMARKS
BROOKINGS      CLEAR     24  18  77 W8        30.03R WCI  15
CHAMBERLAIN    MOCLDY    26  23  87 E5        30.01F WCI  21
HURON          PTCLDY    22  17  81 S6        30.04S WCI  14
MADISON        FAIR      25  25 100 W6        30.03S WCI  18
MITCHELL       PTCLDY    25  20  81 S5        30.07S WCI  19
SIOUX FALLS    PTCLDY    25  19  78 W5        30.07R WCI  19
WINNER         FAIR      29  22  75 E9        29.97F WCI  20
YANKTON        CLEAR     29  24  82 CALM      30.10R
$$

MNZ071-072-080-081-089-090-097-098-180200-
SOUTHWEST MINNESOTA

CITY           SKY/WX    TMP DP  RH WIND       PRES   REMARKS
FAIRMONT       CLEAR     26  20  77 W9        30.05R WCI  17
JACKSON        CLEAR     27  18  69 W9        30.04R WCI  17
LUVERNE        CLEAR     21  18  86 W9        30.07R WCI  11
MARSHALL       PTCLDY    27  17  66 W10       30.04R WCI  17
MONTEVIDEO     CLEAR     25   7  46 N6        30.04R WCI  18
PIPESTONE      CLEAR     27  19  74 W9        30.03R WCI  17
REDWOOD FALLS  CLEAR     27  12  53 NW8       30.03R WCI  19
TRACY          CLEAR     30  21  69 W5        30.03R WCI  25
WINDOM         CLEAR     23   7  50 W6        30.04R WCI  16
WORTHINGTON    CLEAR     21  17  84 W12       30.06R WCI   9
$$

IAZ001>003-012>014-020>022-031-032-NEZ013-014-SDZ071-180200-
NORTHWEST IOWA

CITY           SKY/WX    TMP DP  RH WIND       PRES   REMARKS
CHEROKEE       CLEAR     26  24  91 W7        30.12R WCI  19
DENISON        CLEAR     32  27  80 CALM      30.14R
ESTHERVILLE    CLEAR     26  21  81 W9        30.05R WCI  17
LE MARS        PTCLDY    27  23  86 S5        30.12R WCI  21
ORANGE CITY    CLEAR     25  23  93 W9        30.10R WCI  15
SHELDON        CLEAR     23  21  93 W10       30.07R WCI  12
SIOUX CITY     PTCLDY    29  24  82 NW5       30.13R WCI  24
SPENCER        CLEAR     25  21  85 W13       30.08R WCI  14
STORM LAKE     CLEAR     27  23  86 W15       30.10R WCI  15
$$

ABBREVIATIONS USED IN REMARKS
   TC - TEMPERATURE IN CELSIUS
  WCI - WIND CHILL INDEX
   HX - HEAT INDEX
  VSB - VISIBILITY





USA.gov is the U.S. government's official web portal to all federal, state and local government web resources and services.